Date String (YYYY-MM-DD hh:mm:ss) UTC,Instrument flags,absolute air pressure of the measurement (hPa),sample flow rate (lpm),inlet stack bypass flow (lpm),air temperature of the measurement (°C),ambient temperature measured by the external sensor (°C),aerosol sample conditioner tube jacket temperature (°C),OPC LED temperature (°C),internal box temperature (°C),relative humidity of the measurement (%),span deviation,mass concentration of particles derived from Lorenz-Mie calculation of OPC scattering (μg/m³),mass concentration of particles derived from Lorenz-Mie calculation of OPC scattering (μg/m³),mass concentration of particles derived from Lorenz-Mie calculation of OPC scattering (μg/m³)
DateTimeUTC,F1_M11,P_M11,Q1_M11,Q2_M11,T1_M11,T2_M11,T3_M11,T4_M11,T5_M11,U1_M11,ZSPAN_M11,X0_M11,X2_M11,X1_M11
2024-02-14 18:00:00,SystemResetWarning,0823.8,5.00,000.00,019.1,018.7,000.0,027.2,020.7,13.3,0000.0,0001.69,0000.90,0000.54
2024-02-14 18:01:00,SystemResetWarning,0823.9,5.01,000.00,019.1,018.7,000.0,027.2,020.7,13.4,0000.0,0001.62,0000.86,0000.54
2024-02-14 18:02:00,SystemResetWarning,0823.7,5.00,000.00,019.1,018.7,000.0,027.2,020.8,13.2,0000.0,0001.58,0000.85,0000.54
2024-02-14 18:03:00,SystemResetWarning,0823.7,5.01,000.00,019.1,018.6,000.0,027.2,020.7,12.7,0000.0,0001.54,0000.85,0000.55
2024-02-14 18:04:00,SystemResetWarning,0823.7,5.00,000.00,019.1,018.6,000.0,027.3,020.8,12.8,0000.0,0001.46,0000.84,0000.55
2024-02-14 18:05:00,SystemResetWarning,0823.8,4.99,000.00,019.1,018.6,000.0,027.3,020.8,12.9,0000.0,0001.44,0000.83,0000.54
2024-02-14 18:06:00,SystemResetWarning,0823.9,5.00,000.00,019.1,018.6,000.0,027.3,020.7,13.2,0000.0,0001.42,0000.83,0000.55
2024-02-14 18:07:00,SystemResetWarning,0824.0,5.00,000.00,019.1,018.7,000.0,027.3,020.7,13.1,0000.0,0001.35,0000.80,0000.54
2024-02-14 18:08:00,SystemResetWarning,0823.9,5.01,000.00,019.2,018.7,000.0,027.3,020.8,13.0,0000.0,0001.31,0000.80,0000.55
2024-02-14 18:09:00,SystemResetWarning,0823.8,4.99,000.00,019.2,018.7,000.0,027.3,020.8,13.1,0000.0,0001.35,0000.83,0000.55
2024-02-14 18:10:00,SystemResetWarning,0823.8,4.99,000.00,019.2,018.7,000.0,027.3,020.8,13.0,0000.0,0001.43,0000.85,0000.56
2024-02-14 18:11:00,SystemResetWarning,0823.8,5.02,000.00,019.2,018.7,000.0,027.3,020.8,13.0,0000.0,0001.87,0000.90,0000.56
2024-02-14 18:12:00,SystemResetWarning,0823.9,5.00,000.00,019.2,018.7,000.0,027.3,020.8,13.2,0000.0,0001.95,0000.90,0000.57
2024-02-14 18:13:00,SystemResetWarning,0823.9,4.99,000.00,019.2,018.7,000.0,027.3,020.8,13.3,0000.0,0001.97,0000.91,0000.58
2024-02-14 18:14:00,SystemResetWarning,0823.9,4.99,000.00,019.2,018.7,000.0,027.4,020.8,13.5,0000.0,0001.95,0000.91,0000.58
2024-02-14 18:15:00,SystemResetWarning,0823.9,5.01,000.00,019.2,018.7,000.0,027.4,020.8,13.4,0000.0,0001.96,0000.90,0000.58
2024-02-14 18:16:00,SystemResetWarning,0823.9,5.01,000.00,019.2,018.7,000.0,027.4,020.8,13.5,0000.0,0002.06,0000.92,0000.58
2024-02-14 18:17:00,SystemResetWarning,0823.9,5.00,000.00,019.2,018.7,000.0,027.4,020.8,13.0,0000.0,0001.96,0000.88,0000.57
2024-02-14 18:18:00,SystemResetWarning,0824.0,5.00,000.00,019.2,018.7,000.0,027.4,020.8,13.2,0000.0,0002.14,0000.92,0000.57
2024-02-14 18:19:00,SystemResetWarning,0824.0,4.99,000.00,019.2,018.7,000.0,027.4,020.8,13.3,0000.0,0002.14,0000.92,0000.57
2024-02-14 18:20:00,SystemResetWarning,0823.9,4.99,000.00,019.2,018.7,000.0,027.4,020.9,13.3,0000.0,0002.23,0000.90,0000.57
2024-02-14 18:21:00,SystemResetWarning,0823.9,5.01,000.00,019.2,018.7,000.0,027.4,020.9,13.3,0000.0,0002.44,0000.91,0000.57
2024-02-14 18:22:00,SystemResetWarning,0823.9,5.01,000.00,019.2,018.7,000.0,027.4,020.8,13.4,0000.0,0002.27,0000.88,0000.56
2024-02-14 18:23:00,SystemResetWarning,0823.9,5.01,000.00,019.2,018.7,000.0,027.4,020.8,13.4,0000.0,0002.18,0000.88,0000.56
2024-02-14 18:24:00,SystemResetWarning,0823.9,5.00,000.00,019.2,018.7,000.0,027.4,020.8,13.3,0000.0,0002.29,0000.89,0000.56
2024-02-14 18:25:00,SystemResetWarning,0824.0,5.00,000.00,019.2,018.7,000.0,027.4,020.8,13.4,0000.0,0002.44,0000.92,0000.55
2024-02-14 18:26:00,SystemResetWarning,0823.9,5.00,000.00,019.3,018.7,000.0,027.4,020.8,13.2,0000.0,0002.46,0000.92,0000.55
2024-02-14 18:27:00,SystemResetWarning,0824.0,4.99,000.00,019.3,018.7,000.0,027.4,020.8,13.4,0000.0,0002.32,0000.88,0000.56
2024-02-14 18:28:00,SystemResetWarning,0824.0,5.00,000.00,019.3,018.7,000.0,027.4,020.9,13.5,0000.0,0002.69,0000.87,0000.57
2024-02-14 18:29:00,SystemResetWarning,0824.1,5.01,000.00,019.3,018.7,000.0,027.4,020.8,13.1,0000.0,0003.37,0000.82,0000.56
2024-02-14 18:30:00,SystemResetWarning,0824.1,5.00,000.00,019.3,018.7,000.0,027.4,020.9,13.5,0000.0,0003.27,0000.79,0000.56
2024-02-14 18:31:00,SystemResetWarning,0824.1,5.00,000.00,019.3,018.8,000.0,027.4,020.9,13.4,0000.0,0003.16,0000.80,0000.55
2024-02-14 18:32:00,SystemResetWarning,0824.1,4.99,000.00,019.3,018.8,000.0,027.5,020.9,13.7,0000.0,0002.93,0000.78,0000.55
2024-02-14 18:33:00,SystemResetWarning,0824.1,4.99,000.00,019.3,018.8,000.0,027.5,020.9,12.9,0000.0,0002.84,0000.80,0000.55
2024-02-14 18:34:00,SystemResetWarning,0824.1,5.00,000.00,019.3,018.8,000.0,027.5,021.0,12.6,0000.0,0002.91,0000.82,0000.56
2024-02-14 18:35:00,SystemResetWarning,0824.1,5.00,000.00,019.3,018.8,000.0,027.5,021.0,13.0,0000.0,0002.86,0000.84,0000.57
2024-02-14 18:36:00,SystemResetWarning,0824.1,5.00,000.00,019.3,018.8,000.0,027.5,021.0,13.5,0000.0,0002.72,0000.79,0000.56
2024-02-14 18:37:00,SystemResetWarning,0824.0,5.00,000.00,019.3,018.8,000.0,027.5,021.0,13.6,0000.0,0002.76,0000.81,0000.57
2024-02-14 18:38:00,SystemResetWarning,0824.0,5.00,000.00,019.4,018.8,000.0,027.5,021.0,13.4,0000.0,0002.80,0000.83,0000.56
2024-02-14 18:39:00,SystemResetWarning,0824.0,5.00,000.00,019.4,018.9,000.0,027.5,021.0,14.0,0000.0,0002.65,0000.86,0000.56
2024-02-14 18:40:00,SystemResetWarning,0824.0,5.00,000.00,019.4,018.9,000.0,027.5,021.0,14.2,0000.0,0001.68,0000.87,0000.56
2024-02-14 18:41:00,SystemResetWarning,0824.1,5.00,000.00,019.4,018.9,000.0,027.5,021.0,14.4,0000.0,0001.66,0000.86,0000.55
2024-02-14 18:42:00,SystemResetWarning,0824.1,5.00,000.00,019.4,018.9,000.0,027.5,021.0,14.3,0000.0,0001.63,0000.85,0000.56
2024-02-14 18:43:00,SystemResetWarning,0824.1,4.99,000.00,019.4,018.9,000.0,027.5,021.0,13.8,0000.0,0001.56,0000.83,0000.56
2024-02-14 18:44:00,SystemResetWarning,0824.1,5.00,000.00,019.4,018.9,000.0,027.5,021.0,13.9,0000.0,0001.53,0000.83,0000.55
2024-02-14 18:45:00,SystemResetWarning,0824.1,5.01,000.00,019.4,018.9,000.0,027.5,021.0,13.5,0000.0,0001.42,0000.82,0000.55
2024-02-14 18:46:00,SystemResetWarning,0824.1,5.00,000.00,019.4,018.9,000.0,027.6,021.1,13.6,0000.0,0001.41,0000.83,0000.54
2024-02-14 18:47:00,SystemResetWarning,0824.1,5.01,000.00,019.4,018.9,000.0,027.6,021.1,13.7,0000.0,0001.39,0000.82,0000.53
2024-02-14 18:48:00,SystemResetWarning,0824.1,5.00,000.00,019.4,018.9,000.0,027.6,021.1,14.4,0000.0,0001.39,0000.83,0000.53
2024-02-14 18:49:00,SystemResetWarning,0824.2,5.00,000.00,019.4,018.9,000.0,027.6,021.1,14.4,0000.0,0001.35,0000.81,0000.53
2024-02-14 18:50:00,SystemResetWarning,0824.3,5.00,000.00,019.4,019.0,000.0,027.6,021.1,14.4,0000.0,0001.30,0000.79,0000.53
2024-02-14 18:51:00,SystemResetWarning,0824.3,5.00,000.00,019.4,019.0,000.0,027.6,021.1,14.4,0000.0,0001.19,0000.78,0000.52
2024-02-14 18:52:00,SystemResetWarning,0824.2,5.01,000.00,019.5,019.0,000.0,027.6,021.1,14.7,0000.0,0001.28,0000.77,0000.51
2024-02-14 18:53:00,SystemResetWarning,0824.2,5.00,000.00,019.5,019.0,000.0,027.6,021.1,14.6,0000.0,0001.26,0000.75,0000.49
2024-02-14 18:54:00,SystemResetWarning,0824.3,4.99,000.00,019.5,019.0,000.0,027.6,021.1,13.9,0000.0,0001.23,0000.74,0000.48
2024-02-14 18:55:00,SystemResetWarning,0824.3,4.99,000.00,019.5,019.0,000.0,027.6,021.1,14.0,0000.0,0001.19,0000.72,0000.47
2024-02-14 18:56:00,SystemResetWarning,0824.2,5.00,000.00,019.5,019.1,000.0,027.6,021.1,14.1,0000.0,0001.23,0000.71,0000.46
2024-02-14 18:57:00,SystemResetWarning,0824.3,5.01,000.00,019.5,019.1,000.0,027.7,021.2,13.9,0000.0,0001.27,0000.68,0000.45
2024-02-14 18:58:00,SystemResetWarning,0824.3,5.00,000.00,019.5,019.1,000.0,027.7,021.3,14.3,0000.0,0001.65,0000.70,0000.45
2024-02-14 18:59:00,SystemResetWarning,0824.2,5.00,000.00,019.5,019.2,000.0,027.7,021.3,14.0,0000.0,0002.17,0000.71,0000.45
